Location: Newark
(25.4800°N, 85.7200°E)
Time: 19:43:51
(UTC+00:00)

Explorer 11/Cluster Stage 4 - Pass Details

Date: 25 August 2019
Orbit: 467 x 1260 km, 28.8° (Epoch: 17 September)

Event Time Altitude Azimuth Distance (km) Brightness Sun altitude
Rises 00:29:35 0° 198° (SSW) 3,480 9.6 6.9°
Reaches altitude 10° 00:33:15 10° 176° (S) 2,713 9.3 7.8°
Maximum altitude 00:36:53 15° 143° (SE) 2,501 9.6 8.6°
Drops below altitude 10° 00:40:50 10° 111° (ESE) 3,005 10.9 9.4°
Sets 00:45:14 0° 90° (E) 4,089 12.4 10.4°
